Powrót do katalogu

COSMOS 1766

AktywnyNawigacjaPO
NORAD 16881·PAYLOAD·🇷🇺 Russia

Wystrzelony Jul 28, 1986 z Plesetsk Cosmodrome

Loading…

Następne Przeloty (najbliższe 24 godziny)

TLE

ŚwieżeSource: Space-Track

Epoka: Sep 14, 2026, 00:33 UTC

1 16881U 86055A   26257.02327217  .00026658  00000-0  32673-3 0  9995
2 16881  82.4800 270.9075 0005546 181.5121 178.6120 15.60176469172883

Śledź COSMOS 1766 w czasie rzeczywistym z AllMySat

Download on the App Store